FW6101 Maywood NJ US current weather conditions

sailwx.info

Wind from 293 at 2 knots gusting 9

Air temperature 33.3° C
Dewpoint 17.1° C

Last reported at 2020-Jul-02 20:59 UTC.
Time now 2020-Jul-02 21:29 UTC

Location: N 40°53' W 074°04'.
View on Google Maps.

See reports from other nearby stations

  
Tides and Currents Weather Stations Pressure Air Temp Water Temp Dewpoint Dewpoint Depression Visibility Wind Speed Wind Dir Waves Ship Positions
date/time (UTC)wind fromknots sea level pressurealtimeterstation pressurevisibilityair tempwater tempwave heightnotes
2020-Jul-02 21:09 315 2 gusting 8 33.3
2020-Jul-02 21:04 270 3 gusting 8 33.3
2020-Jul-02 20:59 293 2 gusting 9 33.3
2020-Jul-02 20:54 315 6 gusting 9 33.3
2020-Jul-02 20:49 315 3 gusting 9 33.3
2020-Jul-02 20:44 225 9 gusting 9 33.3
2020-Jul-02 20:39 045 3 gusting 7 33.3
2020-Jul-02 20:34 270 6 gusting 7 33.3
2020-Jul-02 20:29 315 2 gusting 8 32.8
2020-Jul-02 20:24 045 4 gusting 8 32.8
2020-Jul-02 20:19 32.8
2020-Jul-02 20:14 068 2 gusting 6 32.8
2020-Jul-02 20:09 315 2 gusting 12 32.8
2020-Jul-02 20:04 315 1 gusting 12 32.8
2020-Jul-02 19:59 045 3 gusting 13 33.3
2020-Jul-02 19:54 33.3
2020-Jul-02 19:49 315 2 gusting 13 33.3
2020-Jul-02 19:44 045 9 gusting 9 33.3
2020-Jul-02 19:39 33.3
2020-Jul-02 19:34 068 7 gusting 7 33.3
2020-Jul-02 19:29 338 4 gusting 7 33.3
2020-Jul-02 19:24 338 4 gusting 7 32.8
2020-Jul-02 19:19 315 3 gusting 10 32.8
2020-Jul-02 19:14 270 32.8
2020-Jul-02 19:09 270 6 gusting 10 32.8
2020-Jul-02 19:04 270 4 gusting 7 32.8
2020-Jul-02 18:59 270 4 gusting 7 32.8
2020-Jul-02 18:54 338 6 gusting 10 32.8
2020-Jul-02 18:49 270 5 gusting 10 32.8
2020-Jul-02 18:44 32.2
2020-Jul-02 18:39 270 3 gusting 6 32.2
2020-Jul-02 18:34 270 1 gusting 8 32.2
2020-Jul-02 18:29 31.7
2020-Jul-02 18:24 315 6 gusting 11 31.7
2020-Jul-02 18:19 31.7
2020-Jul-02 18:14 270 31.7
2020-Jul-02 18:09 225 2 gusting 8 31.1
2020-Jul-02 18:04 068 4 gusting 8 31.1
2020-Jul-02 17:59 023 2 gusting 8 31.1
2020-Jul-02 17:54 270 31.1
2020-Jul-02 17:49 293 5 gusting 7 31.1
2020-Jul-02 17:44 315 1 gusting 7 31.1
2020-Jul-02 17:39 315 1 gusting 7 31.1
2020-Jul-02 17:34 315 2 gusting 7 31.1
2020-Jul-02 17:29 225 31.7
2020-Jul-02 17:24 225 3 gusting 8 31.1
2020-Jul-02 17:19 225 0 gusting 8 31.1
2020-Jul-02 17:14 31.1
2020-Jul-02 17:09 225 1 gusting 8 31.1
2020-Jul-02 17:04 270 3 gusting 6 31.1
2020-Jul-02 16:59 315 6 gusting 7 31.1
2020-Jul-02 16:54 180 31.1
2020-Jul-02 16:49 315 2 gusting 7 31.1
2020-Jul-02 16:44 068 5 gusting 6 31.1
2020-Jul-02 16:39 315 3 gusting 6 31.1
2020-Jul-02 16:34 315 5 gusting 7 31.1
2020-Jul-02 16:29 31.1
2020-Jul-02 16:24 270 3 gusting 7 31.1
2020-Jul-02 16:19 270 31.1
2020-Jul-02 16:14 270 5 gusting 6 31.1
2020-Jul-02 16:09 338 3 gusting 6 30.6
2020-Jul-02 16:04 315 6 gusting 6 30.6
2020-Jul-02 15:59 315 2 gusting 7 30.6
2020-Jul-02 15:54 090 5 gusting 7 30.6
2020-Jul-02 15:49 315 4 gusting 7 30.6
2020-Jul-02 15:44 338 1 gusting 6 30.6
2020-Jul-02 15:39 248 3 gusting 6 30.0
2020-Jul-02 15:34 315 4 gusting 7 30.0
2020-Jul-02 15:29 270 4 gusting 7 30.0
2020-Jul-02 15:24 29.4
2020-Jul-02 15:19 29.4
2020-Jul-02 15:14 315 4 gusting 6 28.9
2020-Jul-02 15:09 315 29.4
2020-Jul-02 15:04 203 2 gusting 6 29.4
2020-Jul-02 14:59 315 4 gusting 5 29.4
2020-Jul-02 14:54 315 1 gusting 5 28.9
2020-Jul-02 14:49 270 28.9
2020-Jul-02 14:44 225 28.9
2020-Jul-02 14:39 270 3 gusting 6 28.9
2020-Jul-02 14:34 225 28.9
2020-Jul-02 14:29 315 3 gusting 6 28.9
2020-Jul-02 14:24 315 28.3
2020-Jul-02 14:19 023 28.3
2020-Jul-02 14:14 27.8
2020-Jul-02 14:09 315 2 gusting 6 27.8
2020-Jul-02 14:04 315 27.8
2020-Jul-02 13:59 315 4 gusting 6 27.8
2020-Jul-02 13:54 270 3 gusting 5 27.8
2020-Jul-02 13:49 315 27.2
2020-Jul-02 13:44 315 27.2
2020-Jul-02 13:39 315 27.2
2020-Jul-02 13:34 270 26.7
2020-Jul-02 13:29 293 26.7
2020-Jul-02 13:24 338 26.7
2020-Jul-02 13:19 315 26.1
2020-Jul-02 13:14 293 26.1
2020-Jul-02 13:09 293 26.1
2020-Jul-02 13:04 315 25.6
2020-Jul-02 12:59 315 25.6
2020-Jul-02 12:54 293 2 gusting 2 25.6
2020-Jul-02 12:49 315 25.0
2020-Jul-02 12:44 225 24.4
2020-Jul-02 12:39 045 23.9
2020-Jul-02 12:34 270 23.9
2020-Jul-02 12:29 338 24.4
2020-Jul-02 12:24 338 24.4
2020-Jul-02 12:19 315 24.4
2020-Jul-02 12:14 315 23.9
2020-Jul-02 12:09 315 23.9
2020-Jul-02 12:04 315 23.3
2020-Jul-02 11:59 315 23.3
2020-Jul-02 11:54 315 23.3
2020-Jul-02 11:49 315 22.8
2020-Jul-02 11:44 315 22.8
2020-Jul-02 11:39 315 22.2
2020-Jul-02 11:34 21.7
2020-Jul-02 11:29 315 21.1
2020-Jul-02 11:24 315 21.1
2020-Jul-02 11:19 315 20.6
2020-Jul-02 11:14 315 20.0
2020-Jul-02 11:09 315 20.0
2020-Jul-02 11:04 338 20.0
2020-Jul-02 10:59 338 20.0
2020-Jul-02 10:54 338 19.4
2020-Jul-02 10:49 338 19.4
2020-Jul-02 10:44 045 19.4
2020-Jul-02 10:39 045 19.4
2020-Jul-02 10:34 045 19.4
2020-Jul-02 10:29 045 19.4
2020-Jul-02 10:24 270 19.4
2020-Jul-02 10:19 270 18.9
2020-Jul-02 10:14 270 18.9
2020-Jul-02 10:09 270 18.9
2020-Jul-02 10:04 270 18.9
2020-Jul-02 09:59 270 18.9
2020-Jul-02 09:54 270 18.9
2020-Jul-02 09:49 270 18.9
2020-Jul-02 09:44 270 18.9
2020-Jul-02 09:39 270 18.9
2020-Jul-02 09:34 270 18.9
2020-Jul-02 09:29 270 18.9
2020-Jul-02 09:24 270 18.9
2020-Jul-02 09:19 270 18.9
2020-Jul-02 09:14 270 18.9
2020-Jul-02 09:09 270 18.9
2020-Jul-02 09:04 270 18.9
2020-Jul-02 08:59 270 19.4
2020-Jul-02 08:54 270 19.4
2020-Jul-02 08:49 270 19.4
2020-Jul-02 08:44 270 19.4
2020-Jul-02 08:39 270 19.4
2020-Jul-02 08:34 270 19.4
2020-Jul-02 08:29 270 19.4
2020-Jul-02 08:24 270 19.4
2020-Jul-02 08:19 270 19.4
2020-Jul-02 08:14 270 19.4
2020-Jul-02 08:09 270 19.4
2020-Jul-02 08:04 270 19.4
2020-Jul-02 07:59 270 19.4
2020-Jul-02 07:54 270 19.4
2020-Jul-02 07:49 270 19.4
2020-Jul-02 07:44 270 19.4
2020-Jul-02 07:39 270 19.4
2020-Jul-02 07:34 270 20.0
2020-Jul-02 07:29 270 20.0
2020-Jul-02 07:24 270 20.0
2020-Jul-02 07:19 270 20.0
2020-Jul-02 07:14 270 20.0
2020-Jul-02 07:09 270 20.0
2020-Jul-02 07:04 270 20.0
2020-Jul-02 06:59 270 20.0
2020-Jul-02 06:54 270 20.0
2020-Jul-02 06:49 270 20.0
2020-Jul-02 06:44 270 20.0
2020-Jul-02 06:39 270 20.0
2020-Jul-02 06:34 270 20.0
2020-Jul-02 06:29 270 20.0
2020-Jul-02 06:24 270 20.0
2020-Jul-02 06:19 270 20.0
2020-Jul-02 06:14 270 20.0
2020-Jul-02 06:09 270 20.6
2020-Jul-02 06:04 270 20.6
2020-Jul-02 05:59 270 20.6
2020-Jul-02 05:54 270 20.6
2020-Jul-02 05:49 270 20.6
2020-Jul-02 05:44 270 20.6
2020-Jul-02 05:39 270 20.6
2020-Jul-02 05:34 270 20.6
2020-Jul-02 05:29 180 20.6
2020-Jul-02 05:24 180 20.6
2020-Jul-02 05:19 180 20.6
2020-Jul-02 05:14 180 20.6
2020-Jul-02 05:09 180 20.6
2020-Jul-02 05:04 180 20.6
2020-Jul-02 04:59 180 20.6
2020-Jul-02 04:54 180 20.6
2020-Jul-02 04:49 180 20.6
2020-Jul-02 04:44 180 21.1
2020-Jul-02 04:39 180 21.1
2020-Jul-02 04:34 180 21.1
2020-Jul-02 04:29 180 21.1
2020-Jul-02 04:24 180 21.1
2020-Jul-02 04:19 113 21.1
2020-Jul-02 04:14 135 21.1
2020-Jul-02 04:09 045 21.1
2020-Jul-02 04:04 045 21.1
2020-Jul-02 03:59 113 21.1
2020-Jul-02 03:54 090 21.7
2020-Jul-02 03:49 135 21.7
2020-Jul-02 03:44 090 21.7
2020-Jul-02 03:39 135 21.7
2020-Jul-02 03:34 180 21.7
2020-Jul-02 03:29 068 21.7
2020-Jul-02 03:24 135 21.7
2020-Jul-02 03:19 338 1 gusting 3 21.7
2020-Jul-02 03:14 023 21.7
2020-Jul-02 03:09 045 21.7
2020-Jul-02 03:04 045 21.7
2020-Jul-02 02:59 045 21.7
2020-Jul-02 02:54 045 21.7
2020-Jul-02 02:49 023 21.7
2020-Jul-02 02:44 023 21.7
2020-Jul-02 02:39 023 21.7
2020-Jul-02 02:34 225 21.7
2020-Jul-02 02:29 225 21.7
2020-Jul-02 02:24 225 21.7
2020-Jul-02 02:19 225 21.7
2020-Jul-02 02:14 225 21.7
2020-Jul-02 02:09 225 21.7
2020-Jul-02 02:04 225 21.7
2020-Jul-02 01:59 225 21.7
2020-Jul-02 01:54 225 22.2
2020-Jul-02 01:49 270 22.2
2020-Jul-02 01:44 270 22.2
2020-Jul-02 01:39 270 22.2
2020-Jul-02 01:34 270 22.2
2020-Jul-02 01:29 270 22.2
2020-Jul-02 01:24 270 22.2
2020-Jul-02 01:19 270 22.2
2020-Jul-02 01:14 270 22.8
2020-Jul-02 01:09 270 22.8
2020-Jul-02 01:04 270 22.8
2020-Jul-02 00:59 270 22.8
2020-Jul-02 00:54 270 23.3
2020-Jul-02 00:49 270 23.3
2020-Jul-02 00:44 225 23.9
2020-Jul-02 00:39 248 23.9
2020-Jul-02 00:34 225 0 gusting 1 23.9
2020-Jul-02 00:29 225 24.4
2020-Jul-02 00:24 315 24.4
2020-Jul-02 00:19 315 24.4
2020-Jul-02 00:14 315 24.4
2020-Jul-02 00:09 248 24.4
2020-Jul-02 00:04 180 25.0
2020-Jul-01 23:59 180 0 gusting 2 25.0
2020-Jul-01 23:54 225 25.0
2020-Jul-01 23:49 180 25.0
2020-Jul-01 23:44 180 25.0
2020-Jul-01 23:39 225 25.0
2020-Jul-01 23:34 180 25.0
2020-Jul-01 23:29 180 25.0
2020-Jul-01 23:24 180 25.6
2020-Jul-01 23:19 203 0 gusting 4 25.6
2020-Jul-01 23:14 135 25.6
2020-Jul-01 23:09 180 3 gusting 4 25.6
2020-Jul-01 23:04 180 25.6
2020-Jul-01 22:59 225 1 gusting 5 25.6
2020-Jul-01 22:54 180 1 gusting 5 25.6
2020-Jul-01 22:49 203 25.6
2020-Jul-01 22:44 180 3 gusting 6 26.1
2020-Jul-01 22:39 180 26.1
2020-Jul-01 22:34 225 26.1
2020-Jul-01 22:29 135 3 gusting 3 26.1
2020-Jul-01 22:24 180 26.1
2020-Jul-01 22:19 203 26.1
2020-Jul-01 22:14 270 26.1
2020-Jul-01 22:09 225 26.1
2020-Jul-01 22:04 270 26.1
2020-Jul-01 21:59 203 1 gusting 4 26.1
2020-Jul-01 21:54 203 26.1
2020-Jul-01 21:49 225 26.1
2020-Jul-01 21:44 180 26.1
2020-Jul-01 21:39 180 1 gusting 4 26.1
2020-Jul-01 21:34 180 25.6
2020-Jul-01 21:29 225 25.6
2020-Jul-01 21:24 180 25.0
2020-Jul-01 21:19 225 25.0
2020-Jul-01 21:14 270 25.0
2020-Jul-01 21:09 180 25.6
2020-Jul-01 21:04 180 25.6
2020-Jul-01 20:59 203 2 gusting 4 25.6
2020-Jul-01 20:54 180 3 gusting 4 25.0
2020-Jul-01 20:49 203 25.0
2020-Jul-01 20:44 180 25.0
2020-Jul-01 20:39 180 25.6
2020-Jul-01 20:34 180 25.6
2020-Jul-01 20:29 203 25.6
2020-Jul-01 20:24 225 26.1
2020-Jul-01 20:19 203 26.1
2020-Jul-01 20:14 180 26.1
2020-Jul-01 20:09 180 1 gusting 6 26.7
2020-Jul-01 20:04 203 3 gusting 6 26.7
2020-Jul-01 19:59 135 4 gusting 5 26.7
2020-Jul-01 19:54 135 1 gusting 4 26.7
2020-Jul-01 19:49 180 27.2
2020-Jul-01 19:44 203 27.2
2020-Jul-01 19:39 225 27.2
2020-Jul-01 19:34 203 0 gusting 7 27.2
2020-Jul-01 19:29 180 4 gusting 7 26.7
2020-Jul-01 19:24 225 5 gusting 7 26.7
2020-Jul-01 19:19 135 26.7
2020-Jul-01 19:14 180 4 gusting 4 26.1
2020-Jul-01 19:09 180 4 gusting 6 26.1
2020-Jul-01 19:04 068 26.1
2020-Jul-01 18:59 180 26.1
2020-Jul-01 18:54 158 1 gusting 4 25.6
2020-Jul-01 18:49 25.6
2020-Jul-01 18:44 315 25.0
2020-Jul-01 18:39 180 2 gusting 4 25.0
2020-Jul-01 18:34 203 2 gusting 4 25.0
2020-Jul-01 18:29 270 1 gusting 3 24.4
2020-Jul-01 18:24 225 24.4
2020-Jul-01 18:19 180 0 gusting 5 24.4
2020-Jul-01 18:14 180 23.9
2020-Jul-01 18:09 180 23.9
2020-Jul-01 18:04 180 23.9
2020-Jul-01 17:59 135 23.9
2020-Jul-01 17:54 225 23.9
2020-Jul-01 17:49 180 23.9
2020-Jul-01 17:44 180 2 gusting 5 23.9
2020-Jul-01 17:39 225 23.9
2020-Jul-01 17:34 225 0 gusting 4 23.9
2020-Jul-01 17:29 158 23.3
2020-Jul-01 17:24 203 0 gusting 4 23.3
2020-Jul-01 17:19 180 23.3
2020-Jul-01 17:14 180 23.3
2020-Jul-01 17:09 248 23.9
2020-Jul-01 17:04 180 5 gusting 7 23.9
2020-Jul-01 16:59 225 24.4
2020-Jul-01 16:54 225 25.0
2020-Jul-01 16:49 180 25.0
2020-Jul-01 16:44 135 3 gusting 3 25.0
2020-Jul-01 16:39 180 25.6
2020-Jul-01 16:34 315 25.6
2020-Jul-01 16:29 045 25.6
2020-Jul-01 16:24 068 6 gusting 7 25.6
2020-Jul-01 16:19 045 1 gusting 10 25.6
2020-Jul-01 16:14 315 25.6
2020-Jul-01 16:09 023 6 gusting 10 25.0
2020-Jul-01 16:04 315 2 gusting 7 25.0
2020-Jul-01 15:59 270 25.0
2020-Jul-01 15:54 068 25.0
2020-Jul-01 15:49 045 2 gusting 9 25.0
2020-Jul-01 15:44 023 24.4
2020-Jul-01 15:39 045 9 gusting 9 24.4
2020-Jul-01 15:34 023 1 gusting 9 25.0
2020-Jul-01 15:29 023 5 gusting 9 25.6
2020-Jul-01 15:24 068 8 gusting 9 25.6
2020-Jul-01 15:19 338 2 gusting 7 25.6
2020-Jul-01 15:14 045 26.1
2020-Jul-01 15:09 045 1 gusting 6 26.1
2020-Jul-01 15:04 090 3 gusting 6 26.1
2020-Jul-01 14:59 270 26.1
2020-Jul-01 14:54 068 25.6
2020-Jul-01 14:49 068 4 gusting 5 25.6
2020-Jul-01 14:44 023 2 gusting 5 25.0
2020-Jul-01 14:39 135 25.6
2020-Jul-01 14:29 180 25.0
2020-Jul-01 14:24 068 1 gusting 1 24.4
2020-Jul-01 14:19 315 24.4
2020-Jul-01 14:14 270 24.4
2020-Jul-01 14:09 090 24.4
2020-Jul-01 14:04 225 24.4
2020-Jul-01 13:59 315 24.4
2020-Jul-01 13:54 315 25.0
2020-Jul-01 13:49 338 1 gusting 6 25.0
2020-Jul-01 13:44 338 2 gusting 6 25.0
2020-Jul-01 13:39 045 2 gusting 6 24.4
2020-Jul-01 13:34 270 1 gusting 6 24.4
2020-Jul-01 13:29 293 23.9
2020-Jul-01 13:24 315 23.9
2020-Jul-01 13:19 338 23.9
2020-Jul-01 13:14 315 1 gusting 3 23.9
2020-Jul-01 13:09 23.3
2020-Jul-01 13:04 293 23.3
2020-Jul-01 12:59 315 23.3
2020-Jul-01 12:54 293 23.3
2020-Jul-01 12:49 023 23.3
2020-Jul-01 12:44 023 2 gusting 6 23.3
2020-Jul-01 12:39 068 1 gusting 6 23.3
2020-Jul-01 12:34 045 23.3
2020-Jul-01 12:29 315 23.3
2020-Jul-01 12:24 315 22.8
2020-Jul-01 12:19 315 22.2
2020-Jul-01 12:14 068 21.7
2020-Jul-01 12:09 315 21.7
2020-Jul-01 12:04 338 0 gusting 3 21.7
2020-Jul-01 11:59 270 21.7
2020-Jul-01 11:54 090 2 gusting 5 21.7
2020-Jul-01 11:49 045 21.7
2020-Jul-01 11:44 045 21.7
2020-Jul-01 11:39 090 21.1
2020-Jul-01 11:34 21.1
2020-Jul-01 11:29 21.1
2020-Jul-01 11:24 090 0 gusting 5 21.1
2020-Jul-01 11:19 090 20.6
2020-Jul-01 11:14 023 20.6
2020-Jul-01 11:09 045 20.6
2020-Jul-01 11:04 045 20.6
2020-Jul-01 10:59 045 20.6
2020-Jul-01 10:54 315 20.0
2020-Jul-01 10:49 045 20.0
2020-Jul-01 10:44 068 20.0
2020-Jul-01 10:39 045 20.0
2020-Jul-01 10:34 20.0
2020-Jul-01 10:29 045 20.0
2020-Jul-01 10:24 045 19.4
2020-Jul-01 10:19 045 19.4
2020-Jul-01 10:15 315 19.4
2020-Jul-01 10:09 315 19.4
2020-Jul-01 10:04 19.4
2020-Jul-01 09:59 19.4
2020-Jul-01 09:54 19.4
2020-Jul-01 09:49 045 19.4
2020-Jul-01 09:44 045 19.4
2020-Jul-01 09:39 045 19.4
2020-Jul-01 09:34 045 18.9
2020-Jul-01 09:29 090 18.9
2020-Jul-01 09:24 045 18.9
2020-Jul-01 09:19 315 18.9
2020-Jul-01 09:14 315 18.9
2020-Jul-01 09:09 315 18.9
2020-Jul-01 09:04 315 18.9
2020-Jul-01 08:59 315 18.9
2020-Jul-01 08:54 315 18.9
2020-Jul-01 08:49 315 18.9
2020-Jul-01 08:44 315 18.9
2020-Jul-01 08:39 315 18.9
2020-Jul-01 08:34 315 18.9
2020-Jul-01 08:29 315 18.9
2020-Jul-01 08:24 315 18.9
2020-Jul-01 08:20 315 19.4
2020-Jul-01 08:14 315 19.4
2020-Jul-01 08:09 315 19.4
2020-Jul-01 08:04 338 19.4
2020-Jul-01 07:59 045 19.4
2020-Jul-01 07:54 045 19.4
2020-Jul-01 07:49 045 19.4
2020-Jul-01 07:44 338 19.4
2020-Jul-01 07:39 338 19.4
2020-Jul-01 07:34 338 19.4
2020-Jul-01 07:29 338 19.4
2020-Jul-01 07:24 338 19.4
2020-Jul-01 07:19 338 19.4
2020-Jul-01 07:14 338 20.0
2020-Jul-01 07:09 338 20.0
2020-Jul-01 07:04 338 20.0
2020-Jul-01 06:59 338 20.0
2020-Jul-01 06:54 338 20.0
2020-Jul-01 06:49 338 20.0
2020-Jul-01 06:44 338 20.0
2020-Jul-01 06:39 338 20.0
2020-Jul-01 06:34 20.0
2020-Jul-01 06:29 20.0
2020-Jul-01 06:24 20.0
2020-Jul-01 06:19 20.0
2020-Jul-01 06:14 20.0
2020-Jul-01 06:09 20.0
2020-Jul-01 06:04 20.0
2020-Jul-01 05:59 20.0
2020-Jul-01 05:54 20.0
2020-Jul-01 05:49 20.0
2020-Jul-01 05:44 20.0
2020-Jul-01 05:39 045 20.0
2020-Jul-01 05:34 045 20.0
2020-Jul-01 05:29 045 20.0
2020-Jul-01 05:24 045 20.0
2020-Jul-01 05:19 045 20.0
2020-Jul-01 05:14 023 20.0
2020-Jul-01 05:09 023 20.0
2020-Jul-01 05:04 045 20.0
2020-Jul-01 04:59 068 20.0
2020-Jul-01 04:54 045 20.0
2020-Jul-01 04:49 20.0
2020-Jul-01 04:44 068 20.0
2020-Jul-01 04:39 045 20.0
2020-Jul-01 04:34 068 2 gusting 4 20.0
2020-Jul-01 04:29 023 20.0
2020-Jul-01 04:24 023 20.0
2020-Jul-01 04:19 045 20.0
2020-Jul-01 04:14 20.0
2020-Jul-01 04:09 20.0
2020-Jul-01 04:04 20.0
2020-Jul-01 03:54 315 20.0
2020-Jul-01 03:49 315 20.0
2020-Jul-01 03:44 315 20.0
2020-Jul-01 03:39 315 20.6
2020-Jul-01 03:34 315 20.6
2020-Jul-01 03:29 338 20.6
2020-Jul-01 03:24 023 20.6
2020-Jul-01 03:19 20.6
2020-Jul-01 03:14 023 20.6
2020-Jul-01 03:09 045 20.6
2020-Jul-01 03:04 045 20.6
2020-Jul-01 02:59 045 20.6
2020-Jul-01 02:54 045 20.6
2020-Jul-01 02:49 045 20.6
2020-Jul-01 02:44 045 20.6
2020-Jul-01 02:39 045 20.6
2020-Jul-01 02:34 023 21.1
2020-Jul-01 02:29 023 21.1
2020-Jul-01 02:24 023 21.1
2020-Jul-01 02:19 045 21.1
2020-Jul-01 02:14 045 21.1
2020-Jul-01 02:09 045 21.1
2020-Jul-01 02:04 045 21.1
2020-Jul-01 01:59 045 21.1
2020-Jul-01 01:54 045 21.1
2020-Jul-01 01:49 045 21.7
2020-Jul-01 01:44 045 21.7
2020-Jul-01 01:39 045 21.7
2020-Jul-01 01:34 045 21.7
2020-Jul-01 01:29 090 21.7
2020-Jul-01 01:24 090 21.7
2020-Jul-01 01:19 045 21.7
2020-Jul-01 01:14 090 21.7
2020-Jul-01 01:09 045 21.7
2020-Jul-01 01:04 068 21.7
2020-Jul-01 00:59 068 21.7
2020-Jul-01 00:54 045 21.7
2020-Jul-01 00:49 068 21.7
2020-Jul-01 00:44 045 2 gusting 5 22.2
2020-Jul-01 00:39 068 22.2
2020-Jul-01 00:34 135 22.2
2020-Jul-01 00:29 090 1 gusting 3 22.2
2020-Jul-01 00:24 090 22.2
2020-Jul-01 00:19 135 22.2
2020-Jul-01 00:14 090 22.2
2020-Jul-01 00:09 090 22.2
2020-Jul-01 00:04 135 22.8
2020-Jun-30 23:59 180 22.8
2020-Jun-30 23:54 180 22.8
2020-Jun-30 23:49 180 23.3
2020-Jun-30 23:44 045 23.9
2020-Jun-30 23:39 090 23.9
2020-Jun-30 23:34 068 24.4
2020-Jun-30 23:29 068 5 gusting 6 24.4
2020-Jun-30 23:24 068 24.4
2020-Jun-30 23:19 135 5 gusting 5 24.4
2020-Jun-30 23:14 090 25.0
2020-Jun-30 23:09 135 5 gusting 5 25.0
2020-Jun-30 23:04 090 2 gusting 5 25.0
2020-Jun-30 22:59 090 3 gusting 5 25.0
2020-Jun-30 22:54 090 1 gusting 4 25.0
2020-Jun-30 22:49 090 25.0
2020-Jun-30 22:44 045 3 gusting 6 25.0
2020-Jun-30 22:39 045 2 gusting 6 25.0
2020-Jun-30 22:34 045 25.0
2020-Jun-30 22:29 045 25.0
2020-Jun-30 22:24 315 25.0
2020-Jun-30 22:19 045 25.6
2020-Jun-30 22:14 25.6
2020-Jun-30 22:09 068 25.6
2020-Jun-30 22:04 135 25.6
2020-Jun-30 21:59 045 0 gusting 6 25.6
2020-Jun-30 21:54 045 2 gusting 6 25.6
2020-Jun-30 21:49 068 3 gusting 6 25.6
2020-Jun-30 21:44 045 5 gusting 7 25.6
2020-Jun-30 21:39 045 25.6
2020-Jun-30 21:34 045 25.6
2020-Jun-30 21:29 045 6 gusting 7 25.6
2020-Jun-30 21:24 25.6
2020-Jun-30 21:19 045 3 gusting 6 26.1
2020-Jun-30 21:14 090 26.1
2020-Jun-30 21:09 135 0 gusting 6 26.1
2020-Jun-30 21:04 045 5 gusting 6 26.1